• In Belgium
  • List of Countries
  • For 7 days
  • Water Temperature
  • Satellite Maps
  • Weather Map
  • Weather Widgets
  • user-avatar
    Login

    Hourly Weather Talavera de la Reina

    Today, 17 October, Wednesday

    Time Temperature Precipitation Wind Pressure Humidity
    00:00 +15°C° 0 mm 1 mps 728 mmHg 71%
    01:00 +15°C° 0 mm 1 mps 728 mmHg 72%
    02:00 +15°C° 0 mm 1 mps 728 mmHg 72%
    03:00 +14°C° 0 mm 0 mps 727 mmHg 73%
    04:00 +13°C° 0 mm 0 mps 727 mmHg 74%
    05:00 +13°C° 0 mm 0 mps 727 mmHg 74%
    06:00 +13°C° 0 mm 0 mps 728 mmHg 75%
    07:00 +14°C° 0 mm 0 mps 728 mmHg 68%
    08:00 +16°C° 0 mm 0 mps 728 mmHg 61%
    09:00 +18°C° 0 mm 0 mps 728 mmHg 53%
    10:00 +22°C° 0 mm 1 mps 727 mmHg 49%
    11:00 +23°C° 0 mm 1 mps 727 mmHg 45%
    12:00 +24°C° 0 mm 2 mps 727 mmHg 41%
    13:00 +24°C° 0 mm 2 mps 726 mmHg 40%
    14:00 +25°C° 0 mm 3 mps 725 mmHg 39%
    15:00 +25°C° 0 mm 3 mps 725 mmHg 39%
    16:00 +22°C° 0 mm 3 mps 724 mmHg 44%
    17:00 +21°C° 0 mm 2 mps 724 mmHg 49%
    18:00 +19°C° 0 mm 2 mps 724 mmHg 54%
    19:00 +20°C° 0 mm 1 mps 724 mmHg 57%
    20:00 +19°C° 0 mm 1 mps 723 mmHg 59%
    21:00 +18°C° 0 mm 1 mps 723 mmHg 62%
    22:00 +18°C° 0 mm 1 mps 723 mmHg 63%
    23:00 +18°C° 0 mm 1 mps 723 mmHg 63%

    Tomorrow, 18 October, Thursday

    Time Temperature Precipitation Wind Pressure Humidity
    00:00 +18°C° 0 mm 1 mps 722 mmHg 64%
    01:00 +16°C° 0.3 mm 1 mps 722 mmHg 66%
    02:00 +16°C° 0.3 mm 2 mps 722 mmHg 68%
    03:00 +16°C° 0.3 mm 2 mps 721 mmHg 70%
    04:00 +15°C° 0.5 mm 2 mps 721 mmHg 71%
    05:00 +15°C° 0.5 mm 2 mps 721 mmHg 72%
    06:00 +15°C° 0.5 mm 2 mps 721 mmHg 74%
    07:00 +16°C° 0.2 mm 3 mps 721 mmHg 68%
    08:00 +18°C° 0.2 mm 4 mps 722 mmHg 62%
    09:00 +19°C° 0.2 mm 5 mps 722 mmHg 57%
    10:00 +20°C° 0 mm 5 mps 722 mmHg 52%
    11:00 +22°C° 0 mm 6 mps 722 mmHg 47%
    12:00 +23°C° 0 mm 6 mps 722 mmHg 42%
    13:00 +23°C° 0.1 mm 6 mps 722 mmHg 40%
    14:00 +25°C° 0.1 mm 5 mps 721 mmHg 39%
    15:00 +25°C° 0.1 mm 5 mps 721 mmHg 37%
    16:00 +23°C° 0 mm 4 mps 721 mmHg 40%
    17:00 +21°C° 0 mm 3 mps 721 mmHg 44%
    18:00 +20°C° 0 mm 2 mps 722 mmHg 47%
    19:00 +19°C° 0.2 mm 2 mps 722 mmHg 53%
    20:00 +19°C° 0.2 mm 3 mps 723 mmHg 60%
    21:00 +18°C° 0.2 mm 3 mps 723 mmHg 66%
    22:00 +18°C° 0.8 mm 3 mps 723 mmHg 71%
    23:00 +17°C° 0.8 mm 3 mps 723 mmHg 76%

    Day after tomorrow, 19 October, Friday

    Time Temperature Precipitation Wind Pressure Humidity
    00:00 +17°C° 0.8 mm 3 mps 722 mmHg 81%
    01:00 +16°C° 0.9 mm 3 mps 722 mmHg 82%
    02:00 +16°C° 0.9 mm 3 mps 722 mmHg 83%
    03:00 +16°C° 0.9 mm 2 mps 722 mmHg 83%
    04:00 +16°C° 0.5 mm 2 mps 722 mmHg 83%
    05:00 +16°C° 0.5 mm 2 mps 722 mmHg 83%
    06:00 +18°C° 0.5 mm 1 mps 722 mmHg 83%
    07:00 +17°C° 0 mm 2 mps 722 mmHg 80%
    08:00 +18°C° 0 mm 3 mps 723 mmHg 76%
    09:00 +18°C° 0 mm 3 mps 723 mmHg 73%
    10:00 +19°C° 0 mm 4 mps 724 mmHg 70%
    11:00 +20°C° 0 mm 4 mps 724 mmHg 66%
    12:00 +21°C° 0 mm 4 mps 724 mmHg 63%
    13:00 +21°C° 0.1 mm 4 mps 724 mmHg 60%
    14:00 +22°C° 0.1 mm 4 mps 724 mmHg 57%
    15:00 +22°C° 0.1 mm 3 mps 724 mmHg 54%
    16:00 +21°C° 0.1 mm 3 mps 725 mmHg 57%
    17:00 +20°C° 0.1 mm 3 mps 725 mmHg 61%
    18:00 +19°C° 0.1 mm 2 mps 725 mmHg 65%
    19:00 +19°C° 0 mm 3 mps 726 mmHg 66%
    20:00 +18°C° 0 mm 3 mps 726 mmHg 67%
    21:00 +18°C° 0 mm 3 mps 727 mmHg 68%
    22:00 +18°C° 0 mm 3 mps 727 mmHg 71%
    23:00 +17°C° 0 mm 3 mps 727 mmHg 73%

    20 October, Saturday

    Time Temperature Precipitation Wind Pressure Humidity
    00:00 +17°C° 0 mm 3 mps 727 mmHg 75%
    01:00 +16°C° 0 mm 3 mps 727 mmHg 77%
    02:00 +15°C° 0 mm 4 mps 727 mmHg 80%
    03:00 +14°C° 0 mm 4 mps 727 mmHg 83%
    04:00 +14°C° 0 mm 4 mps 727 mmHg 83%
    05:00 +14°C° 0 mm 4 mps 728 mmHg 83%
    06:00 +14°C° 0 mm 4 mps 728 mmHg 83%
    07:00 +16°C° 0 mm 5 mps 728 mmHg 78%
    08:00 +17°C° 0 mm 6 mps 728 mmHg 73%
    09:00 +19°C° 0 mm 6 mps 728 mmHg 68%
    10:00 +20°C° 0 mm 7 mps 728 mmHg 64%
    11:00 +21°C° 0 mm 7 mps 728 mmHg 61%
    12:00 +22°C° 0 mm 8 mps 728 mmHg 58%
    13:00 +22°C° 0.1 mm 7 mps 728 mmHg 55%
    14:00 +23°C° 0.1 mm 7 mps 727 mmHg 53%
    15:00 +23°C° 0.1 mm 7 mps 727 mmHg 51%
    16:00 +22°C° 0 mm 6 mps 727 mmHg 55%
    17:00 +21°C° 0 mm 6 mps 727 mmHg 59%
    18:00 +20°C° 0 mm 5 mps 727 mmHg 64%
    19:00 +20°C° 0.4 mm 5 mps 728 mmHg 68%
    20:00 +19°C° 0.4 mm 5 mps 728 mmHg 73%
    21:00 +19°C° 0.4 mm 5 mps 729 mmHg 78%
    22:00 +19°C° 0.2 mm 5 mps 729 mmHg 78%
    23:00 +17°C° 0.2 mm 5 mps 729 mmHg 79%

    21 October, Sunday

    Time Temperature Precipitation Wind Pressure Humidity
    00:00 +17°C° 0.2 mm 5 mps 729 mmHg 79%
    01:00 +18°C° 0.7 mm 4 mps 729 mmHg 82%
    02:00 +17°C° 0.7 mm 4 mps 729 mmHg 84%
    03:00 +17°C° 0.7 mm 4 mps 729 mmHg 86%
    04:00 +17°C° 0.3 mm 3 mps 729 mmHg 86%
    05:00 +17°C° 0.3 mm 3 mps 729 mmHg 86%
    06:00 +16°C° 0.3 mm 3 mps 729 mmHg 87%
    07:00 +17°C° 0.4 mm 4 mps 729 mmHg 83%
    08:00 +18°C° 0.4 mm 4 mps 730 mmHg 79%
    09:00 +19°C° 0.4 mm 5 mps 730 mmHg 75%
    10:00 +21°C° 0.7 mm 5 mps 730 mmHg 70%
    11:00 +22°C° 0.7 mm 5 mps 730 mmHg 66%
    12:00 +23°C° 0.7 mm 5 mps 730 mmHg 62%
    13:00 +22°C° 1.7 mm 5 mps 730 mmHg 64%
    14:00 +22°C° 1.7 mm 4 mps 729 mmHg 66%
    15:00 +22°C° 1.7 mm 4 mps 729 mmHg 68%
    16:00 +21°C° 1.7 mm 3 mps 729 mmHg 71%
    17:00 +20°C° 1.7 mm 3 mps 729 mmHg 75%
    18:00 +19°C° 1.7 mm 3 mps 729 mmHg 78%
    19:00 +19°C° 1.4 mm 3 mps 729 mmHg 80%
    20:00 +18°C° 1.4 mm 3 mps 730 mmHg 82%
    21:00 +18°C° 1.4 mm 3 mps 730 mmHg 85%
    22:00 +17°C° 0.8 mm 2 mps 730 mmHg 86%
    23:00 +17°C° 0.8 mm 2 mps 730 mmHg 88%

    22 October, Monday

    Time Temperature Precipitation Wind Pressure Humidity
    00:00 +17°C° 0.8 mm 2 mps 730 mmHg 89%
    01:00 +17°C° 0.1 mm 2 mps 730 mmHg 90%
    02:00 +17°C° 0.1 mm 2 mps 730 mmHg 91%
    03:00 +16°C° 0.1 mm 2 mps 730 mmHg 91%
    04:00 +16°C° 0 mm 2 mps 730 mmHg 92%
    05:00 +16°C° 0 mm 2 mps 730 mmHg 92%
    06:00 +16°C° 0 mm 2 mps 730 mmHg 92%
    07:00 +17°C° 0 mm 2 mps 730 mmHg 88%
    08:00 +18°C° 0 mm 3 mps 730 mmHg 83%
    09:00 +19°C° 0 mm 3 mps 730 mmHg 78%
    10:00 +20°C° 0.2 mm 3 mps 730 mmHg 73%
    11:00 +22°C° 0.2 mm 3 mps 730 mmHg 67%
    12:00 +24°C° 0.2 mm 3 mps 730 mmHg 61%
    13:00 +24°C° 0.4 mm 3 mps 730 mmHg 58%
    14:00 +25°C° 0.4 mm 3 mps 729 mmHg 55%
    15:00 +25°C° 0.4 mm 3 mps 728 mmHg 53%
    16:00 +24°C° 0.2 mm 2 mps 729 mmHg 58%
    17:00 +21°C° 0.2 mm 2 mps 729 mmHg 63%
    18:00 +20°C° 0.2 mm 2 mps 729 mmHg 69%
    19:00 +19°C° 0.2 mm 2 mps 729 mmHg 70%
    20:00 +19°C° 0.2 mm 2 mps 729 mmHg 72%
    21:00 +18°C° 0.2 mm 2 mps 729 mmHg 74%
    22:00 +18°C° 0.1 mm 2 mps 729 mmHg 76%
    23:00 +18°C° 0.1 mm 2 mps 729 mmHg 77%
    Show more